Location: Sevilla
(37.3933°N, 5.9839°W)
Time: 05:41:59
(UTC+02:00)

Vanguard 3 - Pass Details

Date: 29 June 2024
Orbit: 508 x 3231 km, 33.4° (Epoch: 15 July)

Event Time Altitude Azimuth Distance (km) Brightness Sun altitude
Rises 11:12:06 0° 262° (W) 6,399 11.3 46.0°
Reaches altitude 10° 11:16:58 10° 261° (W) 4,998 10.9 47.0°
Maximum altitude 11:29:56 70° 182° (S) 1,594 9.5 49.5°
Drops below altitude 10° 11:37:00 10° 100° (E) 2,852 10.8 50.9°
Sets 11:39:05 0° 97° (E) 3,561 11.1 51.3°
